FW3182 Weather Reports


Display with metric or nautical units.
time (UTC)temp
F
wind
direction
speed
MPH
gust
MPH
rain 1hr
in
rain 24hr
in
rain mn
in
humidity
%
barometer
mb
20260508085203 47 112 0.0 0.0 0.00 0.00 0.00 91 1012.7
20260508084704 47 112 0.0 0.0 0.00 0.00 0.00 91 1012.7
20260508084204 47 103 0.0 0.0 0.00 0.00 0.00 91 1012.7
20260508083704 47 93 0.0 0.0 0.00 0.00 0.00 91 1012.7
20260508083204 47 93 0.0 0.0 0.00 0.00 0.00 90 1012.8
20260508082704 47 93 0.0 0.0 0.00 0.00 0.00 90 1012.8
20260508082204 48 93 0.0 0.0 0.00 0.00 0.00 90 1012.9
20260508081204 48 101 0.0 0.0 0.00 0.00 0.00 90 1013.0
20260508075704 47 107 0.0 0.0 0.00 0.00 0.00 90 1013.1
20260508075203 47 107 0.0 0.0 0.00 0.00 0.00 90 1013.2
20260508074704 47 107 0.0 0.0 0.00 0.00 0.00 90 1013.2
20260508074203 47 107 0.0 0.0 0.00 0.00 0.00 90 1013.2
20260508073704 47 107 0.0 0.0 0.00 0.00 0.00 90 1013.3
20260508073204 47 107 0.0 0.0 0.00 0.00 0.00 89 1013.3
20260508072704 47 107 0.0 0.0 0.00 0.00 0.00 88 1013.4
20260508072203 48 107 0.0 0.0 0.00 0.00 0.00 88 1013.4
20260508071704 48 107 0.0 0.0 0.00 0.00 0.00 87 1013.5
20260508071203 48 107 0.0 0.0 0.00 0.00 0.00 86 1013.5
20260508070704 48 107 0.0 0.0 0.00 0.00 0.00 86 1013.5
20260508070204 49 107 0.0 0.0 0.00 0.00 0.00 85 1013.7
20260508065204 49 107 0.0 0.0 0.00 0.00 0.00 84 1013.7
20260508064703 49 107 0.0 1.0 0.00 0.00 0.00 84 1013.7
20260508064203 50 120 0.0 1.0 0.00 0.00 0.00 83 1013.7
20260508063704 50 109 0.0 1.0 0.00 0.00 0.00 83 1013.7
20260508063204 50 105 0.0 1.0 0.00 0.00 0.00 82 1013.7
20260508062704 51 122 0.0 2.0 0.00 0.00 0.00 82 1013.8
20260508062204 51 129 1.0 2.0 0.00 0.00 0.00 81 1013.9
20260508061703 51 123 1.0 3.0 0.00 0.00 0.00 81 1013.8
20260508061204 51 107 0.0 1.0 0.00 0.00 0.00 80 1014.0
20260508060703 51 110 0.0 2.0 0.00 0.00 0.00 80 1014.0
20260508055704 51 130 0.0 0.0 0.00 0.00 0.00 79 1014.1
20260508055203 51 119 0.0 0.0 0.00 0.00 0.00 79 1014.1
20260508054704 51 114 0.0 0.0 0.00 0.00 0.00 79 1014.1
20260508054204 52 110 0.0 0.0 0.00 0.00 0.00 78 1014.1
20260508053704 52 114 0.0 0.0 0.00 0.00 0.00 78 1014.0
20260508053204 52 122 0.0 0.0 0.00 0.00 0.00 77 1014.0
20260508052703 52 122 0.0 0.0 0.00 0.00 0.00 77 1014.1
20260508052204 52 124 0.0 1.0 0.00 0.00 0.00 77 1014.2
20260508051704 52 120 0.0 1.0 0.00 0.00 0.00 77 1014.2
20260508051203 52 120 0.0 1.0 0.00 0.00 0.00 77 1014.3
20260508050703 51 117 0.0 1.0 0.00 0.00 0.00 78 1014.3
20260508050204 51 93 0.0 0.0 0.00 0.00 0.00 79 1014.4
20260508045704 51 93 0.0 0.0 0.00 0.00 0.00 78 1014.4
20260508045204 52 93 0.0 0.0 0.00 0.00 0.00 78 1014.4
20260508044704 52 93 0.0 0.0 0.00 0.00 0.00 77 1014.4
20260508044204 52 203 0.0 1.0 0.00 0.00 0.00 75 1014.4
20260508043703 52 203 0.0 0.0 0.00 0.00 0.00 75 1014.4
20260508043203 52 203 0.0 0.0 0.00 0.00 0.00 75 1014.5
20260508042704 53 203 0.0 0.0 0.00 0.00 0.00 73 1014.4
20260508042203 53 203 0.0 0.0 0.00 0.00 0.00 73 1014.5
20260508041704 53 203 0.0 0.0 0.00 0.00 0.00 72 1014.4
20260508041203 53 203 0.0 0.0 0.00 0.00 0.00 72 1014.4
20260508040203 53 203 0.0 0.0 0.00 0.00 0.00 73 1014.4
20260508035704 53 203 0.0 0.0 0.00 0.00 0.00 72 1014.4
20260508035204 53 203 0.0 0.0 0.00 0.00 0.00 72 1014.5
20260508034703 54 203 0.0 0.0 0.00 0.00 0.00 71 1014.5
20260508034204 54 203 0.0 0.0 0.00 0.00 0.00 71 1014.6
20260508033703 54 203 0.0 0.0 0.00 0.00 0.00 71 1014.6
20260508033204 54 203 0.0 0.0 0.00 0.00 0.00 70 1014.6
20260508032703 54 203 0.0 0.0 0.00 0.00 0.00 70 1014.7
20260508032204 54 203 0.0 0.0 0.00 0.00 0.00 70 1014.6
20260508031704 54 203 0.0 0.0 0.00 0.00 0.00 71 1014.6
20260508030704 54 203 0.0 0.0 0.00 0.00 0.00 70 1014.5
20260508030204 55 203 0.0 0.0 0.00 0.00 0.00 69 1014.6
20260508025703 55 203 0.0 0.0 0.00 0.00 0.00 69 1014.6
20260508025204 56 203 0.0 0.0 0.00 0.00 0.00 69 1014.6
20260508024704 56 203 0.0 1.0 0.00 0.00 0.00 68 1014.5
20260508024203 56 203 0.0 1.0 0.00 0.00 0.00 67 1014.4
20260508023704 56 204 0.0 3.0 0.00 0.00 0.00 67 1014.3
20260508023203 56 188 0.0 1.0 0.00 0.00 0.00 67 1014.2
20260508022204 56 188 0.0 1.0 0.00 0.00 0.00 67 1014.1
20260508020704 56 197 0.0 0.0 0.00 0.00 0.00 71 1013.8
20260508020203 57 197 0.0 0.0 0.00 0.00 0.00 69 1013.8
20260508015704 57 197 0.0 1.0 0.00 0.00 0.00 66 1013.8
20260508015204 57 198 0.0 1.0 0.00 0.00 0.00 67 1013.7
20260508014704 58 198 0.0 0.0 0.00 0.00 0.00 66 1013.6
20260508013704 59 198 0.0 1.0 0.00 0.00 0.00 62 1013.5
20260508012703 61 192 0.0 1.0 0.00 0.00 0.00 62 1013.3
20260508012204 61 188 0.0 1.0 0.00 0.00 0.00 56 1013.2
20260508011703 62 188 0.0 1.0 0.00 0.00 0.00 55 1013.3
20260508011203 63 113 0.0 2.0 0.00 0.00 0.00 54 1013.2
20260508010704 64 175 0.0 1.0 0.00 0.00 0.00 53 1013.1
20260508010204 65 200 0.0 1.0 0.00 0.00 0.00 52 1013.2
20260508005704 67 201 0.0 0.0 0.00 0.00 0.00 51 1013.3
20260508005204 68 201 1.0 3.0 0.00 0.00 0.00 48 1013.2
20260508004704 69 187 0.0 2.0 0.00 0.00 0.00 48 1013.3
20260508003204 69 212 0.0 1.0 0.00 0.00 0.00 47 1013.2
20260508002704 69 198 0.0 2.0 0.00 0.00 0.00 47 1013.3
20260508002203 69 198 0.0 1.0 0.00 0.00 0.00 46 1013.2
20260508001704 69 193 0.0 1.0 0.00 0.00 0.00 46 1013.2
20260508000704 69 244 1.0 2.0 0.00 0.00 0.00 45 1013.2
20260508000204 69 208 1.0 3.0 0.00 0.00 0.00 45 1013.2
20260507235703 69 235 1.0 2.0 0.00 0.00 0.00 46 1013.2
20260507234704 69 218 2.0 5.0 0.00 0.00 0.00 44 1013.3
20260507234204 70 221 1.0 3.0 0.00 0.00 0.00 45 1013.3
20260507233204 69 246 2.0 3.0 0.00 0.00 0.00 44 1013.2
20260507232704 69 244 1.0 5.0 0.00 0.00 0.00 45 1013.3
20260507232204 69 239 4.0 8.0 0.00 0.00 0.00 44 1013.3
20260507230704 70 226 1.0 5.0 0.00 0.00 0.00 43 1013.4
20260507230204 69 229 2.0 9.0 0.00 0.00 0.00 44 1013.5
20260507225703 69 240 1.0 3.0 0.00 0.00 0.00 44 1013.6
20260507225203 68 234 1.0 5.0 0.00 0.00 0.00 44 1013.6
20260507224705 69 185 3.0 7.0 0.00 0.00 0.00 42 1013.7
20260507224204 69 249 3.0 8.0 0.00 0.00 0.00 44 1013.8
20260507223704 69 237 3.0 7.0 0.00 0.00 0.00 44 1013.8
20260507222703 69 239 2.0 6.0 0.00 0.00 0.00 43 1013.8
20260507222204 69 232 2.0 5.0 0.00 0.00 0.00 43 1013.9
20260507221704 69 290 3.0 6.0 0.00 0.00 0.00 43 1014.0
20260507221204 68 211 4.0 10.0 0.00 0.00 0.00 43 1014.0
20260507220204 68 216 4.0 10.0 0.00 0.00 0.00 44 1013.9
20260507214704 69 274 4.0 10.0 0.00 0.00 0.00 42 1013.9
20260507214203 70 249 2.0 5.0 0.00 0.00 0.00 41 1014.1
20260507213703 70 196 3.0 9.0 0.00 0.00 0.00 43 1014.1
20260507213203 70 261 1.0 6.0 0.00 0.00 0.00 44 1014.1
20260507212704 69 255 2.0 8.0 0.00 0.00 0.00 42 1014.2
20260507212204 69 259 1.0 3.0 0.00 0.00 0.00 44 1014.2
20260507211704 69 248 2.0 3.0 0.00 0.00 0.00 42 1014.3
20260507211203 69 247 1.0 6.0 0.00 0.00 0.00 42 1014.3
20260507210704 70 208 2.0 8.0 0.00 0.00 0.00 42 1014.4
20260507210203 70 235 3.0 5.0 0.00 0.00 0.00 41 1014.4
20260507205703 69 216 1.0 3.0 0.00 0.00 0.00 41 1014.5
20260507204204 69 271 2.0 3.0 0.00 0.00 0.00 42 1014.8
20260507203703 69 204 0.0 9.0 0.00 0.00 0.00 42 1014.8
20260507202704 69 278 2.0 5.0 0.00 0.00 0.00 43 1015.0
20260507202203 68 186 1.0 3.0 0.00 0.00 0.00 41 1015.0
20260507201703 68 243 1.0 3.0 0.00 0.00 0.00 42 1015.1
20260507200704 68 312 1.0 3.0 0.00 0.00 0.00 40 1015.3
20260507200204 67 196 1.0 3.0 0.00 0.00 0.00 42 1015.3
20260507195203 67 243 2.0 5.0 0.00 0.00 0.00 41 1015.5
20260507194703 67 236 5.0 9.0 0.00 0.00 0.00 41 1015.6
20260507193704 67 195 3.0 8.0 0.00 0.00 0.00 40 1015.7
20260507193203 68 268 2.0 9.0 0.00 0.00 0.00 43 1015.8
20260507192704 67 184 1.0 3.0 0.00 0.00 0.00 40 1015.9
20260507192204 67 74 3.0 6.0 0.00 0.00 0.00 40 1015.8
20260507191703 66 282 1.0 3.0 0.00 0.00 0.00 41 1015.9
20260507191203 66 302 3.0 12.0 0.00 0.00 0.00 44 1015.9
20260507190703 66 271 3.0 9.0 0.00 0.00 0.00 40 1016.0
20260507190204 66 225 5.0 13.0 0.00 0.00 0.00 38 1016.0
20260507185704 67 232 2.0 9.0 0.00 0.00 0.00 40 1016.0
20260507185203 67 198 1.0 10.0 0.00 0.00 0.00 42 1016.0
20260507184704 66 145 1.0 7.0 0.00 0.00 0.00 42 1016.0
20260507184204 66 202 2.0 8.0 0.00 0.00 0.00 40 1016.2
20260507183704 66 149 3.0 6.0 0.00 0.00 0.00 39 1016.2
20260507183203 66 264 1.0 5.0 0.00 0.00 0.00 39 1016.3
20260507182703 66 231 2.0 7.0 0.00 0.00 0.00 40 1016.3
20260507182204 65 230 3.0 6.0 0.00 0.00 0.00 41 1016.5
20260507181704 65 263 4.0 8.0 0.00 0.00 0.00 43 1016.4
20260507181204 65 243 2.0 7.0 0.00 0.00 0.00 43 1016.6
20260507180204 65 227 3.0 6.0 0.00 0.00 0.00 45 1016.8
20260507175704 65 292 2.0 3.0 0.00 0.00 0.00 44 1016.8
20260507175204 65 176 2.0 7.0 0.00 0.00 0.00 42 1017.0
20260507174704 65 242 2.0 6.0 0.00 0.00 0.00 45 1017.1
20260507174204 65 226 1.0 3.0 0.00 0.00 0.00 48 1017.2
20260507173203 65 253 3.0 7.0 0.00 0.00 0.00 42 1017.3
20260507172704 65 146 2.0 3.0 0.00 0.00 0.00 43 1017.4
20260507172204 65 132 2.0 3.0 0.00 0.00 0.00 46 1017.4
20260507171204 65 201 3.0 5.0 0.00 0.00 0.00 42 1017.6
20260507170704 64 162 1.0 7.0 0.00 0.00 0.00 43 1017.7
20260507170204 64 156 2.0 5.0 0.00 0.00 0.00 45 1017.7
20260507165704 63 212 2.0 5.0 0.00 0.00 0.00 45 1017.7
20260507164704 64 132 1.0 5.0 0.00 0.00 0.00 50 1017.9
20260507164204 64 273 1.0 5.0 0.00 0.00 0.00 48 1018.0
20260507163204 63 54 1.0 7.0 0.00 0.00 0.00 47 1018.1
20260507162704 63 214 1.0 3.0 0.00 0.00 0.00 44 1018.1
20260507162204 62 132 1.0 6.0 0.00 0.00 0.00 43 1018.2
20260507161704 62 236 0.0 1.0 0.00 0.00 0.00 47 1018.4
20260507161204 62 127 3.0 6.0 0.00 0.00 0.00 46 1018.4
20260507160703 62 164 2.0 3.0 0.00 0.00 0.00 48 1018.4
20260507160204 62 177 1.0 6.0 0.00 0.00 0.00 50 1018.5
20260507155704 62 184 1.0 5.0 0.00 0.00 0.00 50 1018.5
20260507154703 62 49 1.0 3.0 0.00 0.00 0.00 50 1018.5
20260507154203 62 189 2.0 3.0 0.00 0.00 0.00 49 1018.5
20260507153704 61 193 0.0 2.0 0.00 0.00 0.00 49 1018.5
20260507153203 60 100 0.0 2.0 0.00 0.00 0.00 50 1018.4
20260507152703 60 199 3.0 6.0 0.00 0.00 0.00 47 1018.5
20260507152204 60 212 2.0 3.0 0.00 0.00 0.00 47 1018.4
20260507151704 59 226 1.0 3.0 0.00 0.00 0.00 52 1018.4
20260507151203 59 66 1.0 3.0 0.00 0.00 0.00 53 1018.4
20260507150703 59 229 1.0 3.0 0.00 0.00 0.00 53 1018.5
20260507150204 59 116 1.0 3.0 0.00 0.00 0.00 54 1018.6
20260507145704 58 142 2.0 3.0 0.00 0.00 0.00 52 1018.6
20260507144704 58 204 1.0 3.0 0.00 0.00 0.00 52 1018.8
20260507144204 58 207 1.0 3.0 0.00 0.00 0.00 55 1018.8
20260507143704 58 213 0.0 2.0 0.00 0.00 0.00 56 1018.8
20260507143203 57 34 1.0 3.0 0.00 0.00 0.00 56 1018.7
20260507142204 56 199 0.0 3.0 0.00 0.00 0.00 61 1018.8
20260507141704 55 180 1.0 5.0 0.00 0.00 0.00 61 1018.7
20260507141204 55 168 1.0 2.0 0.00 0.00 0.00 62 1018.8
20260507140703 54 186 3.0 5.0 0.00 0.00 0.00 60 1018.9
20260507140204 54 211 1.0 3.0 0.00 0.00 0.00 61 1019.0
20260507135704 54 197 1.0 6.0 0.00 0.00 0.00 65 1018.9
20260507135203 54 209 0.0 3.0 0.00 0.00 0.00 63 1018.8
20260507134204 53 210 0.0 1.0 0.00 0.00 0.00 68 1018.9
20260507133704 52 195 2.0 3.0 0.00 0.00 0.00 64 1018.9
20260507133203 52 226 1.0 3.0 0.00 0.00 0.00 66 1018.7
20260507132703 52 208 1.0 2.0 0.00 0.00 0.00 68 1018.8
20260507132204 52 197 1.0 2.0 0.00 0.00 0.00 65 1018.7
20260507131704 52 200 0.0 0.0 0.00 0.00 0.00 69 1018.7
20260507131203 51 191 0.0 0.0 0.00 0.00 0.00 72 1018.6
20260507130704 50 191 0.0 0.0 0.00 0.00 0.00 71 1018.7
20260507125703 50 187 0.0 1.0 0.00 0.00 0.00 70 1018.8
20260507125204 50 210 0.0 1.0 0.00 0.00 0.00 73 1018.9
20260507124704 49 210 0.0 1.0 0.00 0.00 0.00 74 1018.7
20260507124203 48 210 0.0 1.0 0.00 0.00 0.00 74 1018.6
20260507123703 48 212 0.0 0.0 0.00 0.00 0.00 80 1018.7
20260507123204 47 212 0.0 0.0 0.00 0.00 0.00 84 1018.7
20260507122705 45 212 0.0 0.0 0.00 0.00 0.00 86 1018.6
20260507122204 43 212 0.0 0.0 0.00 0.00 0.00 88 1018.8
20260507121704 41 212 0.0 0.0 0.00 0.00 0.00 88 1018.7
20260507121204 40 212 0.0 0.0 0.00 0.00 0.00 89 1018.6
20260507120703 40 212 0.0 0.0 0.00 0.00 0.00 89 1018.5
20260507120203 40 212 0.0 0.0 0.00 0.00 0.00 90 1018.5
20260507115704 40 212 0.0 0.0 0.00 0.00 0.00 89 1018.4
20260507115204 40 212 0.0 0.0 0.00 0.00 0.00 90 1018.3
20260507114703 40 212 0.0 0.0 0.00 0.00 0.00 89 1018.3
20260507114204 40 212 0.0 0.0 0.00 0.00 0.00 90 1018.3
20260507113703 40 213 0.0 0.0 0.00 0.00 0.00 89 1018.2
20260507113203 40 212 0.0 0.0 0.00 0.00 0.00 89 1018.1
20260507112704 41 212 0.0 0.0 0.00 0.00 0.00 89 1018.2
20260507111703 41 212 0.0 0.0 0.00 0.00 0.00 89 1018.0
20260507111203 41 212 0.0 0.0 0.00 0.00 0.00 89 1018.0
20260507110204 41 212 0.0 0.0 0.00 0.00 0.00 88 1017.8
20260507105703 40 212 0.0 0.0 0.00 0.00 0.00 87 1017.8
20260507105204 40 213 0.0 0.0 0.00 0.00 0.00 88 1017.9
20260507104704 40 212 0.0 0.0 0.00 0.00 0.00 89 1017.9
20260507104204 40 212 0.0 0.0 0.00 0.00 0.00 90 1017.8
20260507103704 40 212 0.0 0.0 0.00 0.00 0.00 90 1017.6
20260507103204 40 212 0.0 0.0 0.00 0.00 0.00 88 1017.7
20260507102703 39 212 0.0 0.0 0.00 0.00 0.00 88 1017.8
20260507102204 39 213 0.0 0.0 0.00 0.00 0.00 89 1017.9
20260507101703 39 212 0.0 0.0 0.00 0.00 0.00 90 1017.9
20260507100704 39 212 0.0 0.0 0.00 0.00 0.00 91 1017.7
20260507100204 39 212 0.0 0.0 0.00 0.00 0.00 91 1017.7
20260507095704 38 212 0.0 0.0 0.00 0.00 0.00 90 1017.9
20260507095204 38 212 0.0 0.0 0.00 0.00 0.00 90 1017.9
20260507094204 38 212 0.0 0.0 0.00 0.00 0.00 89 1017.9
20260507092704 39 213 0.0 0.0 0.00 0.00 0.00 88 1017.8
20260507092204 39 212 0.0 0.0 0.00 0.00 0.00 88 1017.9
20260507091703 39 212 0.0 0.0 0.00 0.00 0.00 87 1017.9
20260507090704 40 212 0.0 0.0 0.00 0.00 0.00 87 1017.8
20260507090203 40 212 0.0 0.0 0.00 0.00 0.00 85 1017.5
20260507085704 40 212 0.0 0.0 0.00 0.00 0.00 85 1017.5